Location: Karlovy Vary
(50.2170°N, 12.9000°E)
Time: 03:30:13
(UTC+01:00)

ISS - Visible Passes

Search period start: 22 March 2023 00:00
Search period end: 01 April 2023 01:00
Orbit: 414 x 423 km, 51.6° (Epoch: 21 March)

Date Brightness Start Highest point End Pass type
(mag) Time Alt. Az. Time Alt. Az. Time Alt. Az.
22 Mar -3.6 20:17:47 10° W 20:21:07 66° N 20:21:37 55° NE visible
23 Mar -3.6 19:29:54 10° W 19:33:15 71° N 19:35:46 16° ENE visible
23 Mar -1.9 21:06:49 10° WNW 21:08:43 31° WNW 21:08:43 31° WNW visible
24 Mar -3.7 20:18:57 10° WNW 20:22:18 71° N 20:22:48 58° ENE visible
25 Mar -3.6 19:31:02 10° W 19:34:23 66° N 19:36:50 17° E visible
25 Mar -2.0 21:07:53 10° WNW 21:09:46 30° W 21:09:46 30° W visible
26 Mar -3.9 21:19:57 10° WNW 21:23:19 85° SSW 21:23:46 64° ESE visible
27 Mar -3.8 20:32:00 10° WNW 20:35:22 80° NNE 20:37:46 18° E visible
27 Mar -1.8 22:08:55 10° W 22:10:42 24° WSW 22:10:42 24° WSW visible
28 Mar -3.3 21:20:51 10° WNW 21:24:06 48° SSW 21:24:40 42° S visible
29 Mar -3.6 20:32:50 10° WNW 20:36:09 67° SSW 20:38:39 16° ESE visible
29 Mar -1.2 22:10:15 10° W 22:11:35 15° WSW 22:11:35 15° WSW visible
30 Mar -2.1 21:21:50 10° W 21:24:37 24° SW 21:25:35 21° S visible
31 Mar -2.5 20:33:36 10° W 20:36:42 35° SSW 20:39:36 11° SE visible
